| time (UTC) | temp C | wind direction | speed KPH | gust KPH | rain 1hr cm | rain 24hr cm | rain mn cm | humidity % | barometer mb |
| 20260510022517 | 8 | 0 | 0.0 | 1.6 | 0.00 | 1.60 | 1.60 | 94 | 1009.6 |
| 20260510022014 | 8 | 0 | 0.0 | 0.0 | 0.00 | 1.60 | 1.60 | 94 | 1009.6 |
| 20260510021529 | 8 | 0 | 0.0 | 3.2 | 0.00 | 1.60 | 1.60 | 94 | 1009.5 |
| 20260510021013 | 8 | 0 | 0.0 | 3.2 | 0.00 | 1.60 | 1.60 | 94 | 1009.5 |
| 20260510020514 | 8 | 151 | 0.0 | 3.2 | 0.00 | 1.60 | 1.60 | 93 | 1009.5 |
| 20260510020028 | 8 | 151 | 1.6 | 3.2 | 0.00 | 1.60 | 1.60 | 93 | 1009.6 |
| 20260510015513 | 8 | 151 | 0.0 | 3.2 | 0.00 | 1.60 | 1.60 | 93 | 1009.6 |
| 20260510015011 | 9 | 0 | 0.0 | 1.6 | 0.03 | 1.60 | 1.60 | 93 | 1009.6 |
| 20260510014534 | 9 | 0 | 0.0 | 1.6 | 0.03 | 1.60 | 1.60 | 93 | 1009.5 |
| 20260510014012 | 9 | 0 | 0.0 | 0.0 | 0.03 | 1.60 | 1.60 | 93 | 1009.3 |
| 20260510013512 | 9 | 0 | 0.0 | 0.0 | 0.03 | 1.60 | 1.60 | 93 | 1009.3 |
| 20260510013029 | 9 | 0 | 0.0 | 0.0 | 0.03 | 1.60 | 1.60 | 93 | 1009.3 |
| 20260510012511 | 9 | 0 | 0.0 | 1.6 | 0.03 | 1.60 | 1.60 | 92 | 1009.5 |
| 20260510012009 | 9 | 0 | 0.0 | 1.6 | 0.03 | 1.60 | 1.60 | 92 | 1009.6 |
| 20260510011536 | 10 | 0 | 0.0 | 1.6 | 0.03 | 1.60 | 1.60 | 92 | 1009.6 |
| 20260510011012 | 10 | 0 | 0.0 | 0.0 | 0.03 | 1.60 | 1.60 | 92 | 1009.3 |
| 20260510010511 | 10 | 0 | 0.0 | 0.0 | 0.03 | 1.60 | 1.60 | 92 | 1009.3 |
| 20260510010031 | 10 | 0 | 0.0 | 0.0 | 0.03 | 1.60 | 1.60 | 92 | 1009.2 |
| 20260510005511 | 10 | 0 | 0.0 | 1.6 | 0.03 | 1.60 | 1.60 | 92 | 1009.2 |
| 20260510005012 | 10 | 0 | 0.0 | 1.6 | 0.00 | 1.57 | 1.57 | 92 | 1009.1 |
| 20260510004527 | 10 | 0 | 0.0 | 3.2 | 0.00 | 1.57 | 1.57 | 92 | 1009.0 |
| 20260510004009 | 10 | 151 | 0.0 | 8.0 | 0.00 | 1.57 | 1.57 | 93 | 1008.9 |
| 20260510003511 | 10 | 151 | 0.0 | 8.0 | 0.00 | 1.57 | 1.57 | 93 | 1008.8 |
| 20260510003054 | 10 | 152 | 1.6 | 6.4 | 0.00 | 1.57 | 1.57 | 92 | 1008.8 |
| 20260510002513 | 10 | 171 | 0.0 | 12.9 | 0.00 | 1.57 | 1.57 | 92 | 1008.9 |
| 20260510002011 | 10 | 171 | 4.8 | 12.9 | 0.00 | 1.57 | 1.57 | 92 | 1008.9 |
| 20260510001531 | 10 | 196 | 6.4 | 12.9 | 0.00 | 1.57 | 1.57 | 92 | 1008.8 |
| 20260510001014 | 11 | 189 | 4.8 | 11.3 | 0.00 | 1.57 | 1.57 | 92 | 1008.9 |
| 20260510000513 | 11 | 198 | 4.8 | 9.7 | 0.00 | 1.57 | 1.57 | 92 | 1008.9 |
| 20260510000028 | 11 | 196 | 3.2 | 11.3 | 0.00 | 1.57 | 1.57 | 92 | 1008.7 |
| 20260509235512 | 11 | 202 | 4.8 | 11.3 | 0.00 | 1.57 | 1.57 | 92 | 1008.7 |
| 20260509235011 | 11 | 175 | 3.2 | 8.0 | 0.00 | 1.57 | 1.57 | 91 | 1008.6 |
| 20260509234530 | 11 | 161 | 1.6 | 6.4 | 0.00 | 1.57 | 1.57 | 91 | 1008.5 |
| 20260509234012 | 11 | 160 | 0.0 | 3.2 | 0.00 | 1.57 | 1.57 | 91 | 1008.3 |
| 20260509233511 | 12 | 0 | 0.0 | 1.6 | 0.00 | 1.57 | 1.57 | 91 | 1008.5 |
| 20260509233029 | 12 | 0 | 0.0 | 3.2 | 0.00 | 1.57 | 1.57 | 92 | 1008.4 |
| 20260509232511 | 12 | 0 | 0.0 | 6.4 | 0.00 | 1.57 | 1.57 | 92 | 1008.1 |
| 20260509232010 | 12 | 0 | 0.0 | 6.4 | 0.00 | 1.57 | 1.57 | 92 | 1007.9 |
| 20260509231532 | 12 | 0 | 0.0 | 8.0 | 0.00 | 1.57 | 1.57 | 92 | 1008.0 |
| 20260509231015 | 12 | 0 | 1.6 | 11.3 | 0.00 | 1.57 | 1.57 | 92 | 1008.2 |
| 20260509230511 | 12 | 184 | 1.6 | 11.3 | 0.00 | 1.57 | 1.57 | 91 | 1008.3 |
| 20260509230034 | 12 | 185 | 4.8 | 11.3 | 0.00 | 1.57 | 1.57 | 91 | 1008.3 |
| 20260509225512 | 12 | 207 | 4.8 | 9.7 | 0.00 | 1.57 | 1.57 | 91 | 1008.4 |
| 20260509225010 | 12 | 180 | 3.2 | 8.0 | 0.00 | 1.57 | 1.57 | 92 | 1008.2 |
| 20260509224529 | 12 | 213 | 3.2 | 9.7 | 0.00 | 1.57 | 1.57 | 92 | 1008.1 |
| 20260509224010 | 12 | 191 | 3.2 | 9.7 | 0.00 | 1.57 | 1.57 | 92 | 1007.9 |
| 20260509223511 | 12 | 201 | 3.2 | 9.7 | 0.00 | 1.57 | 1.57 | 93 | 1007.8 |
| 20260509223030 | 12 | 186 | 6.4 | 11.3 | 0.00 | 1.57 | 1.57 | 93 | 1007.8 |
| 20260509222510 | 12 | 192 | 3.2 | 11.3 | 0.00 | 1.57 | 1.57 | 94 | 1007.9 |
| 20260509222009 | 12 | 192 | 4.8 | 14.5 | 0.00 | 1.57 | 1.57 | 94 | 1007.9 |
| 20260509221526 | 12 | 191 | 8.0 | 14.5 | 0.00 | 1.57 | 1.57 | 95 | 1007.9 |
| 20260509221010 | 12 | 185 | 3.2 | 8.0 | 0.00 | 1.57 | 1.57 | 95 | 1008.0 |
| 20260509220514 | 11 | 161 | 3.2 | 9.7 | 0.00 | 1.57 | 1.57 | 95 | 1008.3 |
| 20260509220030 | 11 | 153 | 3.2 | 9.7 | 0.00 | 1.57 | 1.57 | 95 | 1008.3 |
| 20260509215512 | 11 | 159 | 3.2 | 9.7 | 0.00 | 1.57 | 1.57 | 95 | 1008.4 |
| 20260509215013 | 11 | 178 | 3.2 | 9.7 | 0.00 | 1.57 | 1.57 | 95 | 1008.5 |
| 20260509214530 | 11 | 191 | 1.6 | 9.7 | 0.00 | 1.57 | 1.57 | 95 | 1008.6 |
| 20260509214011 | 11 | 168 | 3.2 | 8.0 | 0.00 | 1.57 | 1.57 | 95 | 1008.7 |
| 20260509213513 | 11 | 167 | 3.2 | 8.0 | 0.00 | 1.57 | 1.57 | 95 | 1008.8 |
| 20260509213026 | 11 | 144 | 0.0 | 9.7 | 0.00 | 1.57 | 1.57 | 95 | 1008.8 |
| 20260509212510 | 11 | 169 | 3.2 | 14.5 | 0.00 | 1.57 | 1.57 | 95 | 1008.8 |
| 20260509212013 | 11 | 196 | 3.2 | 14.5 | 0.00 | 1.57 | 1.57 | 95 | 1008.8 |
| 20260509211528 | 11 | 187 | 3.2 | 11.3 | 0.03 | 1.57 | 1.57 | 95 | 1008.7 |
| 20260509211012 | 11 | 194 | 4.8 | 11.3 | 0.03 | 1.57 | 1.57 | 95 | 1008.8 |
| 20260509210514 | 11 | 172 | 1.6 | 11.3 | 0.05 | 1.57 | 1.57 | 95 | 1008.9 |
| 20260509210028 | 11 | 180 | 1.6 | 6.4 | 0.05 | 1.57 | 1.57 | 95 | 1008.9 |
| 20260509205511 | 11 | 188 | 1.6 | 9.7 | 0.05 | 1.57 | 1.57 | 95 | 1008.9 |
| 20260509205011 | 11 | 192 | 3.2 | 9.7 | 0.05 | 1.57 | 1.57 | 95 | 1008.9 |
| 20260509204530 | 11 | 202 | 3.2 | 11.3 | 0.05 | 1.57 | 1.57 | 94 | 1009.0 |
| 20260509204012 | 11 | 186 | 0.0 | 11.3 | 0.05 | 1.57 | 1.57 | 94 | 1009.0 |
| 20260509203511 | 11 | 187 | 4.8 | 11.3 | 0.05 | 1.57 | 1.57 | 94 | 1009.0 |
| 20260509203034 | 11 | 198 | 3.2 | 11.3 | 0.08 | 1.57 | 1.57 | 95 | 1009.1 |
| 20260509202510 | 11 | 195 | 3.2 | 8.0 | 0.08 | 1.57 | 1.57 | 95 | 1009.1 |
| 20260509202011 | 11 | 191 | 3.2 | 8.0 | 0.08 | 1.57 | 1.57 | 95 | 1009.1 |
| 20260509201530 | 11 | 205 | 3.2 | 9.7 | 0.05 | 1.55 | 1.55 | 95 | 1009.1 |
| 20260509201011 | 10 | 194 | 3.2 | 12.9 | 0.05 | 1.55 | 1.55 | 95 | 1009.1 |
| 20260509200511 | 10 | 183 | 8.0 | 14.5 | 0.03 | 1.52 | 1.52 | 94 | 1009.1 |
| 20260509200028 | 10 | 207 | 6.4 | 16.1 | 0.03 | 1.52 | 1.52 | 95 | 1009.2 |
| 20260509195513 | 10 | 238 | 8.0 | 16.1 | 0.03 | 1.52 | 1.52 | 95 | 1009.3 |
| 20260509195010 | 10 | 226 | 6.4 | 14.5 | 0.05 | 1.52 | 1.52 | 95 | 1009.4 |
| 20260509194533 | 10 | 205 | 8.0 | 19.3 | 0.05 | 1.52 | 1.52 | 95 | 1009.4 |
| 20260509194015 | 10 | 213 | 8.0 | 19.3 | 0.05 | 1.52 | 1.52 | 94 | 1009.4 |
| 20260509193513 | 10 | 203 | 6.4 | 16.1 | 0.05 | 1.52 | 1.52 | 95 | 1009.6 |
| 20260509193030 | 10 | 200 | 11.3 | 17.7 | 0.03 | 1.47 | 1.47 | 94 | 1009.6 |
| 20260509192511 | 10 | 195 | 6.4 | 17.7 | 0.03 | 1.47 | 1.47 | 95 | 1009.6 |
| 20260509192011 | 10 | 192 | 6.4 | 16.1 | 0.03 | 1.47 | 1.47 | 95 | 1009.6 |
| 20260509191528 | 10 | 178 | 6.4 | 16.1 | 0.03 | 1.47 | 1.47 | 95 | 1009.6 |
| 20260509191015 | 11 | 170 | 6.4 | 17.7 | 0.03 | 1.47 | 1.47 | 95 | 1009.6 |
| 20260509190513 | 10 | 203 | 8.0 | 20.9 | 0.03 | 1.47 | 1.47 | 95 | 1009.6 |
| 20260509190029 | 10 | 165 | 8.0 | 20.9 | 0.03 | 1.47 | 1.47 | 95 | 1009.7 |
| 20260509185513 | 10 | 186 | 11.3 | 20.9 | 0.03 | 1.47 | 1.47 | 95 | 1009.8 |
| 20260509185010 | 10 | 230 | 6.4 | 16.1 | 0.00 | 1.47 | 1.47 | 95 | 1009.8 |
| 20260509184528 | 10 | 191 | 9.7 | 16.1 | 0.00 | 1.47 | 1.47 | 95 | 1009.8 |
| 20260509184012 | 10 | 253 | 11.3 | 20.9 | 0.03 | 1.47 | 1.47 | 95 | 1009.8 |
| 20260509183510 | 10 | 194 | 9.7 | 20.9 | 0.05 | 1.47 | 1.47 | 95 | 1009.9 |
| 20260509183028 | 10 | 194 | 11.3 | 20.9 | 0.05 | 1.47 | 1.47 | 95 | 1009.9 |
| 20260509182514 | 10 | 206 | 9.7 | 20.9 | 0.05 | 1.47 | 1.47 | 95 | 1009.9 |
| 20260509182015 | 10 | 178 | 11.3 | 20.9 | 0.08 | 1.47 | 1.47 | 95 | 1009.7 |
| 20260509181541 | 10 | 196 | 9.7 | 19.3 | 0.10 | 1.47 | 1.47 | 96 | 1009.7 |
| 20260509181014 | 10 | 218 | 9.7 | 17.7 | 0.10 | 1.47 | 1.47 | 95 | 1009.7 |
| 20260509180513 | 10 | 195 | 6.4 | 20.9 | 0.10 | 1.47 | 1.47 | 96 | 1009.7 |
| 20260509180028 | 10 | 173 | 8.0 | 20.9 | 0.10 | 1.47 | 1.47 | 96 | 1009.6 |
| 20260509175513 | 10 | 168 | 9.7 | 22.5 | 0.10 | 1.47 | 1.47 | 96 | 1009.6 |
| 20260509175011 | 10 | 200 | 9.7 | 22.5 | 0.13 | 1.47 | 1.47 | 96 | 1009.6 |
| 20260509174526 | 10 | 185 | 6.4 | 25.7 | 0.10 | 1.47 | 1.45 | 96 | 1009.6 |
| 20260509174013 | 10 | 201 | 9.7 | 22.5 | 0.10 | 1.47 | 1.45 | 96 | 1009.6 |
| 20260509173512 | 10 | 196 | 8.0 | 22.5 | 0.10 | 1.45 | 1.42 | 96 | 1009.6 |
| 20260509173028 | 10 | 195 | 6.4 | 19.3 | 0.10 | 1.45 | 1.42 | 96 | 1009.6 |
| 20260509172513 | 10 | 223 | 6.4 | 14.5 | 0.08 | 1.42 | 1.40 | 96 | 1009.7 |
| 20260509172013 | 10 | 160 | 3.2 | 17.7 | 0.08 | 1.42 | 1.40 | 96 | 1009.6 |
| 20260509171528 | 10 | 198 | 4.8 | 16.1 | 0.05 | 1.40 | 1.37 | 96 | 1009.6 |
| 20260509171014 | 10 | 237 | 6.4 | 16.1 | 0.08 | 1.40 | 1.37 | 96 | 1009.7 |
| 20260509170512 | 10 | 196 | 4.8 | 16.1 | 0.08 | 1.40 | 1.37 | 96 | 1009.6 |
| 20260509170030 | 10 | 158 | 6.4 | 16.1 | 0.10 | 1.40 | 1.37 | 96 | 1009.6 |
| 20260509165511 | 10 | 225 | 4.8 | 12.9 | 0.10 | 1.40 | 1.37 | 96 | 1009.7 |
| 20260509165011 | 10 | 172 | 4.8 | 12.9 | 0.08 | 1.37 | 1.32 | 96 | 1009.7 |
| 20260509164530 | 10 | 193 | 4.8 | 12.9 | 0.10 | 1.37 | 1.32 | 96 | 1009.8 |
| 20260509164011 | 10 | 163 | 4.8 | 12.9 | 0.10 | 1.37 | 1.32 | 96 | 1009.7 |
| 20260509163515 | 10 | 215 | 4.8 | 12.9 | 0.10 | 1.32 | 1.32 | 96 | 1009.8 |
| 20260509163032 | 10 | 186 | 4.8 | 12.9 | 0.10 | 1.32 | 1.32 | 96 | 1009.7 |
| 20260509162513 | 10 | 155 | 4.8 | 12.9 | 0.10 | 1.32 | 1.32 | 96 | 1009.7 |
| 20260509162015 | 10 | 172 | 1.6 | 8.0 | 0.13 | 1.32 | 1.32 | 97 | 1009.8 |
| 20260509161534 | 10 | 154 | 1.6 | 8.0 | 0.15 | 1.32 | 1.32 | 97 | 1009.8 |
| 20260509161014 | 10 | 156 | 1.6 | 8.0 | 0.13 | 1.32 | 1.30 | 96 | 1009.8 |
| 20260509160515 | 10 | 138 | 1.6 | 6.4 | 0.15 | 1.30 | 1.27 | 97 | 1009.8 |
| 20260509160030 | 10 | 188 | 0.0 | 6.4 | 0.15 | 1.30 | 1.27 | 97 | 1010.0 |
| 20260509155511 | 10 | 188 | 1.6 | 6.4 | 0.18 | 1.30 | 1.27 | 97 | 1010.1 |
| 20260509155011 | 10 | 0 | 0.0 | 8.0 | 0.20 | 1.30 | 1.27 | 96 | 1010.1 |
| 20260509154530 | 10 | 190 | 1.6 | 8.0 | 0.20 | 1.27 | 1.24 | 97 | 1010.2 |
| 20260509154011 | 10 | 206 | 0.0 | 6.4 | 0.23 | 1.27 | 1.24 | 96 | 1010.2 |
| 20260509153514 | 10 | 0 | 0.0 | 6.4 | 0.20 | 1.24 | 1.22 | 97 | 1010.3 |
| 20260509153028 | 10 | 0 | 1.6 | 8.0 | 0.23 | 1.24 | 1.22 | 97 | 1010.3 |
| 20260509152512 | 10 | 0 | 3.2 | 8.0 | 0.25 | 1.24 | 1.22 | 96 | 1010.4 |
| 20260509152012 | 10 | 145 | 1.6 | 6.4 | 0.25 | 1.22 | 1.19 | 97 | 1010.4 |
| 20260509151530 | 10 | 166 | 0.0 | 4.8 | 0.25 | 1.19 | 1.17 | 97 | 1010.5 |
| 20260509151011 | 10 | 0 | 0.0 | 4.8 | 0.23 | 1.17 | 1.14 | 97 | 1010.5 |
| 20260509150512 | 10 | 0 | 0.0 | 4.8 | 0.23 | 1.14 | 1.12 | 96 | 1010.6 |
| 20260509150028 | 10 | 0 | 0.0 | 4.8 | 0.25 | 1.14 | 1.12 | 96 | 1010.6 |
| 20260509145515 | 9 | 167 | 0.0 | 4.8 | 0.23 | 1.12 | 1.09 | 97 | 1010.6 |
| 20260509145011 | 9 | 0 | 0.0 | 1.6 | 0.23 | 1.09 | 1.07 | 97 | 1010.7 |
| 20260509144536 | 9 | 0 | 0.0 | 4.8 | 0.23 | 1.07 | 1.04 | 97 | 1010.7 |
| 20260509144012 | 9 | 0 | 0.0 | 4.8 | 0.20 | 1.04 | 1.02 | 97 | 1010.7 |
| 20260509143512 | 9 | 0 | 0.0 | 4.8 | 0.23 | 1.04 | 1.02 | 97 | 1010.8 |
| 20260509143030 | 9 | 0 | 0.0 | 4.8 | 0.23 | 1.02 | 0.99 | 97 | 1010.7 |
| 20260509142511 | 9 | 167 | 0.0 | 1.6 | 0.20 | 0.99 | 0.97 | 97 | 1010.7 |
| 20260509142013 | 9 | 0 | 0.0 | 4.8 | 0.18 | 0.97 | 0.94 | 97 | 1010.8 |
| 20260509141528 | 9 | 0 | 0.0 | 4.8 | 0.15 | 0.94 | 0.91 | 97 | 1010.8 |
| 20260509141017 | 9 | 0 | 1.6 | 4.8 | 0.15 | 0.91 | 0.89 | 96 | 1010.7 |
| 20260509140512 | 9 | 0 | 0.0 | 0.0 | 0.15 | 0.91 | 0.89 | 97 | 1010.7 |
| 20260509140030 | 9 | 0 | 0.0 | 0.0 | 0.13 | 0.89 | 0.86 | 97 | 1010.6 |
| 20260509135512 | 9 | 0 | 0.0 | 0.0 | 0.13 | 0.86 | 0.84 | 97 | 1010.5 |
| 20260509135013 | 9 | 0 | 0.0 | 0.0 | 0.13 | 0.86 | 0.84 | 97 | 1010.6 |
| 20260509134529 | 9 | 0 | 0.0 | 0.0 | 0.10 | 0.84 | 0.81 | 97 | 1010.5 |
| 20260509134012 | 9 | 0 | 0.0 | 0.0 | 0.10 | 0.84 | 0.81 | 97 | 1010.4 |
| 20260509133512 | 9 | 0 | 0.0 | 0.0 | 0.10 | 0.81 | 0.79 | 97 | 1010.3 |
| 20260509133030 | 9 | 0 | 0.0 | 0.0 | 0.08 | 0.79 | 0.76 | 97 | 1010.3 |
| 20260509132514 | 8 | 0 | 0.0 | 0.0 | 0.08 | 0.79 | 0.76 | 97 | 1010.3 |
| 20260509132013 | 8 | 0 | 0.0 | 0.0 | 0.10 | 0.79 | 0.76 | 97 | 1010.3 |
| 20260509131528 | 8 | 0 | 0.0 | 0.0 | 0.10 | 0.79 | 0.76 | 97 | 1010.4 |
| 20260509131014 | 8 | 0 | 0.0 | 0.0 | 0.08 | 0.76 | 0.74 | 97 | 1010.4 |
| 20260509130513 | 8 | 0 | 0.0 | 1.6 | 0.08 | 0.76 | 0.74 | 97 | 1010.3 |
| 20260509130028 | 8 | 0 | 0.0 | 1.6 | 0.08 | 0.76 | 0.74 | 97 | 1010.4 |
| 20260509125512 | 8 | 0 | 0.0 | 0.0 | 0.05 | 0.74 | 0.71 | 97 | 1010.4 |
| 20260509125012 | 8 | 0 | 0.0 | 0.0 | 0.05 | 0.74 | 0.71 | 97 | 1010.5 |
| 20260509124527 | 8 | 0 | 0.0 | 0.0 | 0.05 | 0.74 | 0.71 | 97 | 1010.6 |
| 20260509124014 | 8 | 0 | 0.0 | 0.0 | 0.03 | 0.71 | 0.69 | 97 | 1010.6 |
| 20260509123512 | 8 | 0 | 0.0 | 1.6 | 0.03 | 0.71 | 0.69 | 97 | 1010.5 |
| 20260509123030 | 8 | 0 | 0.0 | 0.0 | 0.03 | 0.71 | 0.69 | 97 | 1010.6 |
| 20260509122513 | 8 | 0 | 0.0 | 0.0 | 0.03 | 0.71 | 0.69 | 97 | 1010.4 |
| 20260509122012 | 8 | 0 | 0.0 | 0.0 | 0.00 | 0.69 | 0.66 | 97 | 1010.4 |
| 20260509121530 | 8 | 0 | 0.0 | 0.0 | 0.00 | 0.69 | 0.66 | 97 | 1010.5 |
| 20260509121012 | 8 | 0 | 0.0 | 0.0 | 0.00 | 0.69 | 0.66 | 97 | 1010.5 |
| 20260509120511 | 8 | 0 | 0.0 | 0.0 | 0.00 | 0.69 | 0.66 | 97 | 1010.5 |
| 20260509120030 | 8 | 0 | 0.0 | 0.0 | 0.00 | 0.69 | 0.66 | 97 | 1010.6 |
| 20260509115511 | 8 | 0 | 0.0 | 1.6 | 0.00 | 0.69 | 0.66 | 97 | 1010.6 |
| 20260509115011 | 8 | 0 | 0.0 | 1.6 | 0.00 | 0.69 | 0.66 | 97 | 1010.7 |
| 20260509114528 | 8 | 0 | 0.0 | 0.0 | 0.00 | 0.69 | 0.66 | 97 | 1010.7 |
| 20260509114012 | 8 | 0 | 0.0 | 0.0 | 0.00 | 0.69 | 0.66 | 97 | 1010.7 |
| 20260509113514 | 8 | 0 | 0.0 | 0.0 | 0.00 | 0.69 | 0.66 | 97 | 1010.7 |
| 20260509113033 | 8 | 0 | 0.0 | 0.0 | 0.00 | 0.69 | 0.66 | 97 | 1010.7 |
| 20260509112513 | 8 | 0 | 0.0 | 0.0 | 0.00 | 0.69 | 0.66 | 97 | 1010.8 |
| 20260509112010 | 7 | 0 | 0.0 | 0.0 | 0.00 | 0.69 | 0.66 | 97 | 1010.9 |
| 20260509111011 | 7 | 0 | 0.0 | 0.0 | 0.03 | 0.69 | 0.66 | 97 | 1010.8 |
| 20260509110512 | 7 | 0 | 0.0 | 0.0 | 0.03 | 0.69 | 0.66 | 97 | 1010.8 |
| 20260509110034 | 7 | 0 | 0.0 | 0.0 | 0.05 | 0.69 | 0.66 | 97 | 1010.9 |
| 20260509105513 | 7 | 0 | 0.0 | 0.0 | 0.05 | 0.69 | 0.66 | 97 | 1010.8 |
| 20260509105012 | 7 | 0 | 0.0 | 0.0 | 0.05 | 0.69 | 0.66 | 97 | 1010.9 |
| 20260509104537 | 7 | 0 | 0.0 | 0.0 | 0.08 | 0.69 | 0.66 | 97 | 1010.8 |
| 20260509104014 | 7 | 0 | 0.0 | 0.0 | 0.08 | 0.69 | 0.66 | 96 | 1010.9 |
| 20260509103511 | 7 | 0 | 0.0 | 0.0 | 0.10 | 0.69 | 0.66 | 96 | 1010.8 |
| 20260509103028 | 7 | 0 | 0.0 | 0.0 | 0.10 | 0.69 | 0.66 | 96 | 1010.8 |
| 20260509102510 | 7 | 0 | 0.0 | 0.0 | 0.10 | 0.69 | 0.66 | 96 | 1010.7 |
| 20260509101537 | 7 | 0 | 0.0 | 0.0 | 0.10 | 0.66 | 0.64 | 96 | 1010.7 |
| 20260509101017 | 7 | 0 | 0.0 | 0.0 | 0.10 | 0.66 | 0.64 | 96 | 1010.8 |
| 20260509100512 | 7 | 0 | 0.0 | 0.0 | 0.10 | 0.64 | 0.61 | 96 | 1010.8 |
| 20260509100031 | 7 | 0 | 0.0 | 0.0 | 0.10 | 0.64 | 0.61 | 96 | 1010.9 |
| 20260509095513 | 7 | 0 | 0.0 | 0.0 | 0.10 | 0.64 | 0.61 | 96 | 1010.9 |
| 20260509095013 | 7 | 0 | 0.0 | 0.0 | 0.08 | 0.61 | 0.58 | 96 | 1010.9 |
| 20260509094532 | 7 | 0 | 0.0 | 0.0 | 0.08 | 0.61 | 0.58 | 96 | 1010.9 |
| 20260509094011 | 7 | 0 | 0.0 | 0.0 | 0.08 | 0.61 | 0.58 | 96 | 1010.9 |
| 20260509093513 | 7 | 0 | 0.0 | 1.6 | 0.08 | 0.58 | 0.56 | 96 | 1010.8 |
| 20260509093042 | 7 | 0 | 0.0 | 1.6 | 0.08 | 0.58 | 0.56 | 96 | 1010.9 |
| 20260509092511 | 7 | 0 | 0.0 | 0.0 | 0.08 | 0.58 | 0.56 | 96 | 1011.0 |
| 20260509092011 | 7 | 0 | 0.0 | 0.0 | 0.08 | 0.56 | 0.53 | 96 | 1010.9 |
| 20260509091535 | 7 | 0 | 0.0 | 0.0 | 0.08 | 0.56 | 0.53 | 96 | 1011.0 |
| 20260509091013 | 7 | 0 | 0.0 | 0.0 | 0.10 | 0.56 | 0.53 | 96 | 1011.0 |
| 20260509090512 | 7 | 0 | 0.0 | 0.0 | 0.08 | 0.53 | 0.51 | 96 | 1011.0 |
| 20260509085515 | 7 | 0 | 0.0 | 1.6 | 0.10 | 0.53 | 0.51 | 96 | 1011.1 |
| 20260509085013 | 7 | 0 | 0.0 | 1.6 | 0.13 | 0.53 | 0.51 | 96 | 1011.0 |
| 20260509084541 | 7 | 0 | 0.0 | 0.0 | 0.13 | 0.53 | 0.51 | 96 | 1011.1 |
| 20260509084011 | 7 | 0 | 0.0 | 0.0 | 0.15 | 0.53 | 0.51 | 96 | 1011.1 |
| 20260509083510 | 7 | 0 | 0.0 | 1.6 | 0.13 | 0.51 | 0.48 | 96 | 1011.2 |
| 20260509083029 | 7 | 0 | 0.0 | 1.6 | 0.13 | 0.51 | 0.48 | 96 | 1011.1 |
| 20260509082511 | 7 | 0 | 0.0 | 0.0 | 0.13 | 0.48 | 0.46 | 96 | 1011.0 |
| 20260509082011 | 7 | 0 | 0.0 | 3.2 | 0.13 | 0.48 | 0.46 | 96 | 1011.0 |
| 20260509081537 | 7 | 0 | 0.0 | 3.2 | 0.15 | 0.48 | 0.46 | 96 | 1011.1 |
| 20260509081016 | 7 | 0 | 0.0 | 3.2 | 0.13 | 0.46 | 0.43 | 96 | 1011.3 |
| 20260509080514 | 7 | 0 | 0.0 | 1.6 | 0.15 | 0.46 | 0.43 | 96 | 1011.3 |
| 20260509080041 | 7 | 0 | 0.0 | 0.0 | 0.18 | 0.46 | 0.43 | 96 | 1011.4 |
| 20260509075514 | 7 | 0 | 0.0 | 0.0 | 0.15 | 0.43 | 0.41 | 96 | 1011.5 |
| 20260509075012 | 7 | 0 | 0.0 | 0.0 | 0.15 | 0.41 | 0.38 | 96 | 1011.4 |
| 20260509074528 | 7 | 0 | 0.0 | 1.6 | 0.15 | 0.38 | 0.36 | 96 | 1011.4 |
| 20260509074017 | 7 | 0 | 0.0 | 1.6 | 0.18 | 0.38 | 0.36 | 95 | 1011.5 |
| 20260509073513 | 7 | 0 | 0.0 | 3.2 | 0.20 | 0.38 | 0.36 | 95 | 1011.5 |
| 20260509073034 | 7 | 0 | 0.0 | 3.2 | 0.20 | 0.38 | 0.36 | 95 | 1011.4 |
| 20260509072513 | 7 | 0 | 0.0 | 3.2 | 0.20 | 0.36 | 0.33 | 95 | 1011.6 |
| 20260509072011 | 7 | 0 | 0.0 | 3.2 | 0.20 | 0.36 | 0.33 | 95 | 1011.6 |
| 20260509071526 | 7 | 0 | 0.0 | 0.0 | 0.20 | 0.33 | 0.30 | 95 | 1011.6 |
| 20260509071012 | 7 | 0 | 0.0 | 1.6 | 0.18 | 0.30 | 0.28 | 95 | 1011.6 |
| 20260509070510 | 7 | 0 | 0.0 | 6.4 | 0.20 | 0.30 | 0.28 | 95 | 1011.6 |
| 20260509070030 | 7 | 171 | 0.0 | 8.0 | 0.18 | 0.28 | 0.25 | 95 | 1011.6 |
| 20260509065510 | 7 | 175 | 0.0 | 8.0 | 0.15 | 0.25 | 0.23 | 95 | 1011.7 |
| 20260509065011 | 7 | 0 | 0.0 | 1.6 | 0.15 | 0.25 | 0.23 | 95 | 1011.7 |
| 20260509064528 | 7 | 0 | 0.0 | 3.2 | 0.15 | 0.23 | 0.20 | 95 | 1011.8 |
| 20260509064014 | 7 | 0 | 0.0 | 3.2 | 0.13 | 0.20 | 0.18 | 95 | 1011.8 |
| 20260509063509 | 7 | 0 | 0.0 | 3.2 | 0.10 | 0.18 | 0.15 | 95 | 1012.0 |
| 20260509063029 | 7 | 0 | 0.0 | 3.2 | 0.13 | 0.18 | 0.15 | 95 | 1012.0 |
| 20260509062512 | 7 | 185 | 0.0 | 3.2 | 0.10 | 0.15 | 0.13 | 95 | 1011.9 |
| 20260509062013 | 7 | 185 | 0.0 | 4.8 | 0.10 | 0.15 | 0.13 | 94 | 1012.0 |
| 20260509061528 | 7 | 0 | 1.6 | 4.8 | 0.10 | 0.13 | 0.10 | 94 | 1012.0 |
| 20260509061018 | 7 | 185 | 1.6 | 4.8 | 0.10 | 0.13 | 0.10 | 94 | 1011.9 |
| 20260509060514 | 7 | 185 | 0.0 | 3.2 | 0.08 | 0.10 | 0.08 | 94 | 1011.9 |
| 20260509060029 | 7 | 0 | 0.0 | 0.0 | 0.08 | 0.10 | 0.08 | 94 | 1011.7 |
| 20260509055515 | 7 | 0 | 0.0 | 1.6 | 0.08 | 0.13 | 0.08 | 94 | 1011.6 |
| 20260509055014 | 7 | 0 | 0.0 | 1.6 | 0.08 | 0.13 | 0.08 | 94 | 1011.5 |
| 20260509054532 | 7 | 0 | 0.0 | 0.0 | 0.05 | 0.10 | 0.05 | 94 | 1011.6 |
| 20260509054013 | 7 | 0 | 0.0 | 0.0 | 0.05 | 0.10 | 0.05 | 93 | 1011.6 |
| 20260509053510 | 7 | 0 | 0.0 | 0.0 | 0.05 | 0.10 | 0.05 | 93 | 1011.7 |
| 20260509053035 | 7 | 0 | 0.0 | 0.0 | 0.03 | 0.08 | 0.03 | 93 | 1011.7 |
| 20260509052512 | 7 | 0 | 0.0 | 0.0 | 0.03 | 0.08 | 0.03 | 93 | 1011.7 |
| 20260509052012 | 7 | 0 | 0.0 | 0.0 | 0.03 | 0.08 | 0.03 | 93 | 1011.7 |
| 20260509051537 | 7 | 0 | 0.0 | 3.2 | 0.00 | 0.05 | 0.00 | 93 | 1011.8 |
| 20260509051010 | 7 | 0 | 0.0 | 3.2 | 0.00 | 0.05 | 0.00 | 93 | 1011.9 |
| 20260509050512 | 7 | 0 | 0.0 | 0.0 | 0.00 | 0.05 | 0.00 | 93 | 1011.8 |
| 20260509050029 | 7 | 0 | 0.0 | 0.0 | 0.00 | 0.05 | 0.00 | 93 | 1011.7 |
| 20260509045514 | 7 | 0 | 0.0 | 0.0 | 0.00 | 0.28 | 0.00 | 93 | 1011.6 |
| 20260509045013 | 7 | 0 | 0.0 | 0.0 | 0.00 | 0.28 | 0.00 | 93 | 1011.6 |
| 20260509044527 | 7 | 0 | 0.0 | 0.0 | 0.00 | 0.28 | 0.00 | 93 | 1011.8 |
| 20260509044010 | 7 | 0 | 0.0 | 0.0 | 0.00 | 0.28 | 0.00 | 92 | 1011.8 |
| 20260509043511 | 7 | 0 | 0.0 | 0.0 | 0.00 | 0.28 | 0.00 | 92 | 1011.9 |
| 20260509043028 | 7 | 0 | 0.0 | 0.0 | 0.00 | 0.28 | 0.00 | 92 | 1011.9 |
| 20260509042512 | 7 | 0 | 0.0 | 0.0 | 0.00 | 0.28 | 0.00 | 92 | 1012.0 |
| 20260509042013 | 7 | 0 | 0.0 | 0.0 | 0.00 | 0.28 | 0.00 | 92 | 1012.0 |
| 20260509041528 | 6 | 0 | 0.0 | 0.0 | 0.00 | 0.28 | 0.00 | 92 | 1011.9 |
| 20260509041012 | 6 | 0 | 0.0 | 0.0 | 0.00 | 0.28 | 0.00 | 92 | 1012.0 |
| 20260509040514 | 6 | 0 | 0.0 | 0.0 | 0.00 | 0.28 | 0.00 | 92 | 1012.0 |
| 20260509040030 | 6 | 0 | 0.0 | 0.0 | 0.00 | 0.28 | 0.00 | 92 | 1012.1 |
| 20260509035512 | 6 | 0 | 0.0 | 0.0 | 0.00 | 0.28 | 0.28 | 91 | 1012.1 |
| 20260509035012 | 6 | 0 | 0.0 | 0.0 | 0.00 | 0.28 | 0.28 | 91 | 1012.1 |
| 20260509034530 | 6 | 0 | 0.0 | 3.2 | 0.00 | 0.28 | 0.28 | 91 | 1012.0 |
| 20260509034010 | 6 | 0 | 0.0 | 3.2 | 0.00 | 0.28 | 0.28 | 91 | 1012.0 |
| 20260509033512 | 6 | 185 | 1.6 | 3.2 | 0.00 | 0.28 | 0.28 | 90 | 1012.0 |
| 20260509033026 | 6 | 0 | 0.0 | 3.2 | 0.00 | 0.28 | 0.28 | 90 | 1012.0 |
| 20260509032513 | 6 | 0 | 0.0 | 3.2 | 0.00 | 0.28 | 0.28 | 90 | 1012.0 |
| 20260509032011 | 6 | 0 | 0.0 | 0.0 | 0.00 | 0.28 | 0.28 | 90 | 1011.9 |
| 20260509031532 | 6 | 0 | 0.0 | 3.2 | 0.00 | 0.28 | 0.28 | 89 | 1011.9 |
| 20260509031016 | 6 | 0 | 0.0 | 4.8 | 0.00 | 0.28 | 0.28 | 89 | 1012.0 |
| 20260509030513 | 6 | 185 | 1.6 | 4.8 | 0.00 | 0.28 | 0.28 | 88 | 1012.0 |
| 20260509030030 | 6 | 185 | 3.2 | 4.8 | 0.00 | 0.28 | 0.28 | 88 | 1011.8 |
| 20260509025512 | 6 | 0 | 0.0 | 0.0 | 0.00 | 0.28 | 0.28 | 88 | 1011.9 |
| 20260509025011 | 7 | 0 | 0.0 | 0.0 | 0.00 | 0.28 | 0.28 | 88 | 1011.8 |
| 20260509024527 | 7 | 0 | 0.0 | 0.0 | 0.00 | 0.28 | 0.28 | 88 | 1011.9 |
| 20260509024010 | 6 | 0 | 0.0 | 0.0 | 0.00 | 0.28 | 0.28 | 88 | 1011.9 |
| 20260509023517 | 7 | 0 | 0.0 | 0.0 | 0.00 | 0.28 | 0.28 | 88 | 1011.9 |
| 20260509023030 | 7 | 0 | 0.0 | 3.2 | 0.00 | 0.28 | 0.28 | 87 | 1012.0 |